Location: Bothwell
(42.3833°S, 147.0000°E)
Time: 00:27:54
(UTC+10:00)

M-CUBED/EXP-1 PRIME - Visible Passes

Search period start: 26 September 2022 00:00
Search period end: 06 October 2022 01:00
Orbit: 421 x 626 km, 101.7° (Epoch: 24 September)

Date Brightness Start Highest point End Pass type
(mag) Time Alt. Az. Time Alt. Az. Time Alt. Az.
26 Sep ? 05:20:13 10° SE 05:24:19 35° ENE 05:28:17 10° N visible
27 Sep ? 05:08:05 10° SE 05:11:44 25° E 05:15:18 10° NNE visible
28 Sep ? 04:56:07 10° SE 04:59:07 18° E 05:02:02 10° NE visible
29 Sep ? 04:44:37 10° ESE 04:46:25 12° E 04:48:11 10° ENE visible
05 Oct ? 06:02:14 10° ESE 06:04:17 13° E 06:06:19 10° ENE visible
